EW7507 Weather Reports


Display with metric or nautical units.
time (UTC)temp
F
wind
direction
speed
MPH
gust
MPH
rain 1hr
in
rain 24hr
in
rain mn
in
humidity
%
barometer
mb
20260506172641 68 226 4.0 10.0 0.00 0.00 0.00 28 969.7
20260506172634 68 168 2.0 10.0 0.00 0.00 0.00 29 969.5
20260506171631 68 231 3.0 10.0 0.00 0.00 0.00 28 969.7
20260506171130 67 292 3.0 9.0 0.00 0.00 0.00 29 969.8
20260506170641 65 269 4.0 11.0 0.00 0.00 0.00 31 970.1
20260506170632 66 199 2.0 11.0 0.00 0.00 0.00 29 969.9
20260506165633 66 179 1.0 9.0 0.00 0.00 0.00 33 970.1
20260506165132 65 264 4.0 9.0 0.00 0.00 0.00 31 970.3
20260506164631 65 281 4.0 9.0 0.00 0.00 0.00 30 970.3
20260506164131 64 283 3.0 9.0 0.00 0.00 0.00 32 970.3
20260506163631 64 203 5.0 10.0 0.00 0.00 0.00 31 970.4
20260506163130 63 289 2.0 11.0 0.00 0.00 0.00 32 970.6
20260506162638 63 178 6.0 10.0 0.00 0.00 0.00 31 970.7
20260506162631 63 202 5.0 11.0 0.00 0.00 0.00 32 970.8
20260506161632 63 209 4.0 12.0 0.00 0.00 0.00 32 970.9
20260506161129 62 179 6.0 12.0 0.00 0.00 0.00 32 970.8
20260506160632 61 212 5.0 10.0 0.00 0.00 0.00 34 971.0
20260506160129 61 217 2.0 7.0 0.00 0.00 0.00 34 971.1
20260506155639 59 216 4.0 9.0 0.00 0.00 0.00 36 971.2
20260506155632 60 214 6.0 9.0 0.00 0.00 0.00 34 971.2
20260506154629 58 206 4.0 9.0 0.00 0.00 0.00 38 971.4
20260506154129 57 212 5.0 9.0 0.00 0.00 0.00 37 971.5
20260506153630 56 185 2.0 6.0 0.00 0.00 0.00 40 971.5
20260506153129 55 157 2.0 5.0 0.00 0.00 0.00 42 971.6
20260506152630 55 116 2.0 5.0 0.00 0.00 0.00 40 971.7
20260506152129 55 182 2.0 5.0 0.00 0.00 0.00 43 971.8
20260506151629 54 162 2.0 10.0 0.00 0.00 0.00 44 971.8
20260506151136 51 286 3.0 6.0 0.00 0.00 0.00 50 971.9
20260506151128 53 195 4.0 10.0 0.00 0.00 0.00 47 971.9
20260506150126 49 238 1.0 3.0 0.00 0.00 0.00 52 972.0
20260506145630 48 238 1.0 2.0 0.00 0.00 0.00 53 972.0
20260506145127 47 238 0.0 3.0 0.00 0.00 0.00 56 972.1
20260506144630 46 238 1.0 3.0 0.00 0.00 0.00 57 972.2
20260506144128 44 240 0.0 2.0 0.00 0.00 0.00 59 972.2
20260506143630 43 240 0.0 2.0 0.00 0.00 0.00 61 972.3
20260506143125 42 240 0.0 1.0 0.00 0.00 0.00 63 972.4
20260506142628 40 240 0.0 2.0 0.00 0.00 0.00 64 972.5
20260506142127 39 240 0.0 2.0 0.00 0.00 0.00 66 972.7
20260506141630 38 240 0.0 2.0 0.00 0.00 0.00 67 972.8
20260506141127 37 240 0.0 2.0 0.00 0.00 0.00 69 972.8
20260506140629 36 240 0.0 3.0 0.00 0.00 0.00 71 972.9
20260506140128 35 240 1.0 3.0 0.00 0.00 0.00 72 972.9
20260506135628 34 240 1.0 3.0 0.00 0.00 0.00 74 973.0
20260506135133 32 240 0.0 2.0 0.00 0.00 0.00 76 973.1
20260506135127 33 240 1.0 2.0 0.00 0.00 0.00 75 973.1
20260506134126 32 240 0.0 1.0 0.00 0.00 0.00 76 973.2
20260506133628 31 240 0.0 1.0 0.00 0.00 0.00 77 973.2
20260506133133 30 240 0.0 1.0 0.00 0.00 0.00 78 973.3
20260506133125 31 240 0.0 1.0 0.00 0.00 0.00 78 973.2
20260506132133 30 240 0.0 0.0 0.00 0.00 0.00 79 973.4
20260506132125 30 240 0.0 1.0 0.00 0.00 0.00 78 973.4
20260506131124 29 240 0.0 0.0 0.00 0.00 0.00 79 973.5
20260506130626 29 240 0.0 0.0 0.00 0.00 0.00 79 973.6
20260506130125 28 240 0.0 3.0 0.00 0.00 0.00 79 973.5
20260506125626 28 240 0.0 3.0 0.00 0.00 0.00 79 973.7
20260506125125 28 240 0.0 3.0 0.00 0.00 0.00 79 973.7
20260506124626 28 240 1.0 3.0 0.00 0.00 0.00 79 973.7
20260506124132 28 238 0.0 2.0 0.00 0.00 0.00 79 973.8
20260506124124 28 238 0.0 3.0 0.00 0.00 0.00 79 973.8
20260506123124 28 238 0.0 3.0 0.00 0.00 0.00 79 973.8
20260506122625 28 240 1.0 3.0 0.00 0.00 0.00 79 973.9
20260506122123 28 240 0.0 3.0 0.00 0.00 0.00 79 973.8
20260506121625 28 238 0.0 3.0 0.00 0.00 0.00 79 973.9
20260506121123 28 240 0.0 5.0 0.00 0.00 0.00 79 974.0
20260506120626 28 237 3.0 5.0 0.00 0.00 0.00 79 973.9
20260506120131 28 235 0.0 0.0 0.00 0.00 0.00 79 974.1
20260506120123 28 235 0.0 3.0 0.00 0.00 0.00 79 974.0
20260506115131 28 235 0.0 0.0 0.00 0.00 0.00 78 974.2
20260506115123 28 235 0.0 0.0 0.00 0.00 0.00 78 974.2
20260506114123 28 235 0.0 0.0 0.00 0.00 0.00 78 974.2
20260506113624 28 235 0.0 0.0 0.00 0.00 0.00 78 974.2
20260506113123 28 235 0.0 0.0 0.00 0.00 0.00 78 974.4
20260506112624 28 235 0.0 0.0 0.00 0.00 0.00 78 974.4
20260506112124 28 235 0.0 0.0 0.00 0.00 0.00 77 974.4
20260506111623 28 235 0.0 0.0 0.00 0.00 0.00 77 974.5
20260506111122 29 235 0.0 3.0 0.00 0.00 0.00 77 974.5
20260506110623 29 235 0.0 3.0 0.00 0.00 0.00 76 974.5
20260506110122 29 235 2.0 3.0 0.00 0.00 0.00 76 974.6
20260506105622 29 235 1.0 3.0 0.00 0.00 0.00 76 974.8
20260506105121 29 235 0.0 3.0 0.00 0.00 0.00 75 974.9
20260506104625 29 237 0.0 3.0 0.00 0.00 0.00 75 974.9
20260506104121 29 237 2.0 3.0 0.00 0.00 0.00 74 974.9
20260506103623 29 237 0.0 0.0 0.00 0.00 0.00 73 974.9
20260506103122 29 237 0.0 0.0 0.00 0.00 0.00 72 975.1
20260506102631 29 237 0.0 2.0 0.00 0.00 0.00 72 975.1
20260506102622 29 237 0.0 1.0 0.00 0.00 0.00 72 975.1
20260506101623 30 237 0.0 2.0 0.00 0.00 0.00 72 975.3
20260506101127 30 237 0.0 2.0 0.00 0.00 0.00 71 975.4
20260506101120 30 237 0.0 2.0 0.00 0.00 0.00 72 975.3
20260506100747 30 237 0.0 0.0 0.00 0.00 0.00 71 975.5
20260506095621 30 237 0.0 2.0 0.00 0.00 0.00 70 975.5
20260506095127 30 237 0.0 3.0 0.00 0.00 0.00 69 975.6
20260506095121 30 237 0.0 2.0 0.00 0.00 0.00 70 975.6
20260506094119 30 237 0.0 3.0 0.00 0.00 0.00 68 975.7
20260506093628 31 237 0.0 2.0 0.00 0.00 0.00 68 975.8
20260506093621 31 237 1.0 3.0 0.00 0.00 0.00 68 975.7
20260506092622 31 237 0.0 2.0 0.00 0.00 0.00 68 975.8
20260506092127 31 237 0.0 1.0 0.00 0.00 0.00 67 976.0
20260506092119 31 237 0.0 0.0 0.00 0.00 0.00 67 975.9
20260506091118 31 237 0.0 2.0 0.00 0.00 0.00 65 975.9
20260506090622 32 237 2.0 2.0 0.00 0.00 0.00 64 976.1
20260506090119 32 237 0.0 0.0 0.00 0.00 0.00 63 976.2
20260506085620 32 237 0.0 0.0 0.00 0.00 0.00 63 976.2
20260506085120 32 237 0.0 0.0 0.00 0.00 0.00 63 976.2
20260506084621 32 237 0.0 0.0 0.00 0.00 0.00 63 976.3
20260506084123 33 237 0.0 2.0 0.00 0.00 0.00 61 976.3
20260506084118 33 237 0.0 0.0 0.00 0.00 0.00 62 976.3
20260506083119 33 237 0.0 4.0 0.00 0.00 0.00 61 976.4
20260506082620 33 235 3.0 5.0 0.00 0.00 0.00 61 976.5
20260506082119 33 237 0.0 5.0 0.00 0.00 0.00 60 976.5
20260506081621 34 243 1.0 4.0 0.00 0.00 0.00 60 976.6
20260506081118 34 243 0.0 4.0 0.00 0.00 0.00 61 976.6
20260506080621 34 241 2.0 7.0 0.00 0.00 0.00 61 976.7
20260506080118 34 259 2.0 7.0 0.00 0.00 0.00 60 976.9
20260506073124 33 141 0.0 1.0 0.00 0.00 0.00 62 977.5
20260506073116 33 142 0.0 0.0 0.00 0.00 0.00 63 977.3
20260506072116 33 141 0.0 1.0 0.00 0.00 0.00 62 977.5
20260506071620 33 141 0.0 0.0 0.00 0.00 0.00 62 977.4
20260506071116 33 141 0.0 2.0 0.00 0.00 0.00 61 977.5
20260506070620 33 141 0.0 4.0 0.00 0.00 0.00 61 977.5
20260506070116 33 141 3.0 4.0 0.00 0.00 0.00 61 977.6
20260506062114 36 55 0.0 1.0 0.00 0.00 0.00 56 977.7
20260506061626 37 55 2.0 4.0 0.00 0.00 0.00 54 977.7
20260506061618 36 55 0.0 4.0 0.00 0.00 0.00 55 977.7
20260506060618 37 59 0.0 3.0 0.00 0.00 0.00 53 977.7
20260506060115 38 154 1.0 3.0 0.00 0.00 0.00 51 977.8
20260506051112 40 169 2.0 7.0 0.00 0.00 0.00 47 977.9
20260506050620 40 157 3.0 9.0 0.00 0.00 0.00 47 977.9
20260506050112 40 193 2.0 9.0 0.00 0.00 0.00 47 977.9
20260506045112 41 145 3.0 9.0 0.00 0.00 0.00 45 978.1
20260506044613 42 175 2.0 6.0 0.00 0.00 0.00 45 978.0
20260506044120 42 166 2.0 9.0 0.00 0.00 0.00 45 977.9
20260506044114 41 161 4.0 6.0 0.00 0.00 0.00 46 977.9
20260506043119 43 162 3.0 7.0 0.00 0.00 0.00 43 977.9
20260506043113 43 166 4.0 9.0 0.00 0.00 0.00 43 978.0
20260506042112 43 149 5.0 7.0 0.00 0.00 0.00 43 977.9
20260506041621 42 145 2.0 4.0 0.00 0.00 0.00 46 977.9
20260506041613 42 149 4.0 6.0 0.00 0.00 0.00 45 977.9
20260506040613 42 113 2.0 5.0 0.00 0.00 0.00 45 978.0
20260506040111 42 116 2.0 5.0 0.00 0.00 0.00 44 978.1
20260506035611 42 128 2.0 6.0 0.00 0.00 0.00 44 978.0
20260506035110 42 110 3.0 6.0 0.00 0.00 0.00 44 978.0
20260506034613 42 155 2.0 4.0 0.00 0.00 0.00 43 978.0
20260506034110 44 152 0.0 6.0 0.00 0.00 0.00 42 978.0
20260506033613 45 145 3.0 6.0 0.00 0.00 0.00 40 977.9
20260506033111 46 99 2.0 5.0 0.00 0.00 0.00 38 977.9
20260506032610 46 80 0.0 1.0 0.00 0.00 0.00 39 977.8
20260506032111 47 80 0.0 1.0 0.00 0.00 0.00 38 977.8
20260506031611 47 80 0.0 2.0 0.00 0.00 0.00 37 977.8
20260506031110 47 80 0.0 5.0 0.00 0.00 0.00 37 977.7
20260506030618 48 72 1.0 3.0 0.00 0.00 0.00 35 977.7
20260506030611 48 80 0.0 5.0 0.00 0.00 0.00 36 977.7
20260506030236 48 71 0.0 2.0 0.00 0.00 0.00 35 977.7
20260506025737 49 69 0.0 2.0 0.00 0.00 0.00 35 977.7
20260506025236 49 69 0.0 2.0 0.00 0.00 0.00 34 977.5
20260506024736 49 65 0.0 4.0 0.00 0.00 0.00 33 977.6
20260506023611 50 63 0.0 4.0 0.00 0.00 0.00 31 977.5
20260506023109 50 62 1.0 7.0 0.00 0.00 0.00 31 977.5
20260506022611 51 56 4.0 7.0 0.00 0.00 0.00 30 977.5
20260506022109 51 41 3.0 6.0 0.00 0.00 0.00 29 977.5
20260506021611 51 8 1.0 5.0 0.00 0.00 0.00 29 977.4
20260506021108 51 7 0.0 5.0 0.00 0.00 0.00 30 977.3
20260506020610 51 1 0.0 2.0 0.00 0.00 0.00 29 977.4
20260506020106 51 1 0.0 9.0 0.00 0.00 0.00 28 977.5
20260506015608 52 0 2.0 11.0 0.00 0.00 0.00 28 977.5
20260506015234 52 20 1.0 9.0 0.00 0.00 0.00 27 977.5
20260506015116 52 25 2.0 9.0 0.00 0.00 0.00 27 977.5
20260506015109 52 4 1.0 11.0 0.00 0.00 0.00 28 977.5
20260506013608 52 3 2.0 6.0 0.00 0.00 0.00 28 977.4
20260506013117 53 31 1.0 7.0 0.00 0.00 0.00 28 977.4
20260506013108 52 38 2.0 7.0 0.00 0.00 0.00 27 977.4
20260506012106 53 56 1.0 11.0 0.00 0.00 0.00 28 977.4
20260506011607 53 11 6.0 11.0 0.00 0.00 0.00 28 977.4
20260506011106 53 30 0.0 13.0 0.00 0.00 0.00 28 977.5
20260506010616 54 0 4.0 13.0 0.00 0.00 0.00 28 977.4
20260506010608 53 7 9.0 13.0 0.00 0.00 0.00 28 977.5
20260506005617 54 27 0.0 11.0 0.00 0.00 0.00 29 977.5
20260506005609 54 17 4.0 10.0 0.00 0.00 0.00 29 977.4
20260506004113 54 11 1.0 13.0 0.00 0.00 0.00 28 977.6
20260506004106 54 10 7.0 13.0 0.00 0.00 0.00 28 977.6
20260506003112 54 8 0.0 14.0 0.00 0.00 0.00 28 977.8
20260506003105 54 18 8.0 14.0 0.00 0.00 0.00 28 977.7
20260506002107 54 0 1.0 7.0 0.00 0.00 0.00 29 977.8
20260506001607 55 65 2.0 12.0 0.00 0.00 0.00 28 977.7
20260506001113 55 333 4.0 15.0 0.00 0.00 0.00 28 978.0
20260506001106 55 3 6.0 15.0 0.00 0.00 0.00 28 977.9
20260506000106 55 0 2.0 14.0 0.00 0.00 0.00 28 977.9
20260505235607 55 357 6.0 13.0 0.00 0.00 0.00 29 977.9
20260505235104 55 4 5.0 14.0 0.00 0.00 0.00 27 978.0
20260505234607 56 1 8.0 14.0 0.00 0.00 0.00 28 977.9
20260505234104 55 327 0.0 10.0 0.00 0.00 0.00 29 977.9
20260505233605 54 313 3.0 10.0 0.00 0.00 0.00 28 978.0
20260505233112 54 4 1.0 15.0 0.00 0.00 0.00 29 978.1
20260505233104 54 8 0.0 11.0 0.00 0.00 0.00 29 978.1
20260505232104 55 348 6.0 16.0 0.00 0.00 0.00 28 978.3
20260505231604 56 18 7.0 16.0 0.00 0.00 0.00 27 978.2
20260505231104 56 0 4.0 18.0 0.00 0.00 0.00 28 978.1
20260505230605 56 316 10.0 16.0 0.00 0.00 0.00 28 978.2
20260505230104 55 347 2.0 14.0 0.00 0.00 0.00 29 978.3
20260505225605 55 347 2.0 14.0 0.00 0.00 0.00 29 978.3
20260505225103 54 1 1.0 16.0 0.00 0.00 0.00 29 978.4
20260505224605 54 18 7.0 16.0 0.00 0.00 0.00 29 978.3
20260505224102 54 0 3.0 14.0 0.00 0.00 0.00 28 978.5
20260505223604 55 316 6.0 14.0 0.00 0.00 0.00 28 978.5
20260505223103 55 0 5.0 12.0 0.00 0.00 0.00 29 978.4
20260505222605 55 353 4.0 11.0 0.00 0.00 0.00 29 978.5
20260505222102 55 0 4.0 11.0 0.00 0.00 0.00 29 978.5
20260505221605 54 0 4.0 11.0 0.00 0.00 0.00 29 978.6
20260505221102 54 355 5.0 11.0 0.00 0.00 0.00 29 978.6
20260505220604 54 18 2.0 11.0 0.00 0.00 0.00 29 978.5
20260505215603 53 1 3.0 15.0 0.00 0.00 0.00 29 978.7
20260505215101 54 1 7.0 13.0 0.00 0.00 0.00 29 978.7
20260505214603 54 7 7.0 16.0 0.00 0.00 0.00 28 978.7
20260505214102 55 25 7.0 16.0 0.00 0.00 0.00 28 978.7
20260505213604 55 350 8.0 16.0 0.00 0.00 0.00 27 978.7
20260505213102 55 0 3.0 9.0 0.00 0.00 0.00 29 978.8
20260505212603 55 321 3.0 14.0 0.00 0.00 0.00 28 978.8
20260505212101 55 358 2.0 14.0 0.00 0.00 0.00 27 979.1
20260505211603 56 7 5.0 18.0 0.00 0.00 0.00 26 979.1
20260505211108 56 317 5.0 12.0 0.00 0.00 0.00 27 979.1
20260505211100 56 0 9.0 18.0 0.00 0.00 0.00 28 979.1
20260505205611 55 358 2.0 16.0 0.00 0.00 0.00 28 979.2
20260505205603 55 20 8.0 15.0 0.00 0.00 0.00 28 979.2
20260505204603 56 336 6.0 16.0 0.00 0.00 0.00 27 979.2
20260505204100 56 0 11.0 16.0 0.00 0.00 0.00 27 979.2
20260505203601 56 347 7.0 16.0 0.00 0.00 0.00 28 979.3
20260505203100 56 321 5.0 13.0 0.00 0.00 0.00 29 979.3
20260505202600 56 0 9.0 13.0 0.00 0.00 0.00 29 979.4
20260505202108 55 0 9.0 17.0 0.00 0.00 0.00 32 979.4
20260505202100 55 72 4.0 17.0 0.00 0.00 0.00 30 979.3
20260505201101 55 0 9.0 15.0 0.00 0.00 0.00 30 979.5
20260505200601 54 331 9.0 14.0 0.00 0.00 0.00 31 979.4
20260505200100 54 0 9.0 16.0 0.00 0.00 0.00 33 979.5
20260505195559 53 340 9.0 16.0 0.00 0.00 0.00 33 979.6
20260505195059 54 338 4.0 13.0 0.00 0.00 0.00 31 979.5
20260505194607 55 355 4.0 14.0 0.00 0.00 0.00 33 979.5
20260505194559 55 345 6.0 14.0 0.00 0.00 0.00 32 979.5
20260505193601 54 0 4.0 13.0 0.00 0.00 0.00 33 979.5
20260505193059 54 351 6.0 13.0 0.00 0.00 0.00 36 979.6
20260505192601 53 28 6.0 19.0 0.00 0.00 0.00 37 979.6
20260505192058 53 341 10.0 19.0 0.00 0.00 0.00 34 979.6
20260505191600 54 14 8.0 14.0 0.00 0.00 0.00 36 979.6
20260505191058 54 37 8.0 13.0 0.00 0.00 0.00 36 979.6
20260505190601 53 52 1.0 13.0 0.00 0.00 0.00 37 979.6
20260505190059 52 0 9.0 13.0 0.00 0.00 0.00 38 979.7
20260505185559 51 358 6.0 13.0 0.00 0.00 0.00 39 979.7
20260505185059 51 0 4.0 14.0 0.00 0.00 0.00 39 979.7
20260505184559 51 18 7.0 14.0 0.00 0.00 0.00 41 979.8
20260505184057 49 331 5.0 12.0 0.00 0.00 0.00 41 979.7
20260505183606 49 247 4.0 12.0 0.00 0.00 0.00 42 979.8
20260505183558 49 347 4.0 12.0 0.00 0.00 0.00 42 979.8
20260505182557 49 314 6.0 12.0 0.00 0.00 0.00 41 979.8
20260505182056 49 0 5.0 14.0 0.00 0.00 0.00 43 979.8
20260505181559 49 307 7.0 14.0 0.00 0.00 0.00 43 979.9
20260505181057 49 10 6.0 10.0 0.00 0.00 0.00 48 979.9
20260505180558 48 338 4.0 10.0 0.00 0.00 0.00 47 979.9
20260505180058 48 338 3.0 10.0 0.00 0.00 0.00 50 979.9
20260505175558 48 344 1.0 9.0 0.00 0.00 0.00 51 980.0
20260505175056 47 344 6.0 12.0 0.00 0.00 0.00 51 980.0
20260505174558 47 316 5.0 12.0 0.00 0.00 0.00 52 980.0
20260505174056 47 289 3.0 11.0 0.00 0.00 0.00 50 980.0
20260505173556 48 338 7.0 11.0 0.00 0.00 0.00 51 980.0
20260505173057 48 300 2.0 11.0 0.00 0.00 0.00 51 979.9